DW9686 Weather Reports


time (UTC)temp
C
wind
direction
speed
KPH
gust
KPH
rain 1hr
cm
rain 24hr
cm
rain mn
cm
humidity
%
barometer
mb
20260508091532 12 0 0.0 3.2 0.00 0.00 0.00 64 1012.7
20260508090045 13 0 0.0 6.4 0.00 0.00 0.00 63 1012.8
20260508084530 13 138 3.2 4.8 0.00 0.00 0.00 62 1012.5
20260508083032 13 138 3.2 6.4 0.00 0.00 0.00 64 1012.4
20260508081535 12 0 0.0 0.0 0.00 0.00 0.00 63 1012.4
20260508080029 13 0 0.0 0.0 0.00 0.00 0.00 63 1012.4
20260508074532 13 0 0.0 0.0 0.00 0.00 0.00 60 1012.5
20260508073035 13 0 0.0 3.2 0.00 0.00 0.00 59 1012.4
20260508071530 14 0 0.0 0.0 0.00 0.00 0.00 59 1012.3
20260508070030 15 138 0.0 4.8 0.00 0.00 0.00 56 1012.2
20260508064531 15 0 0.0 0.0 0.00 0.00 0.00 56 1012.3
20260508063032 16 138 0.0 3.2 0.00 0.00 0.00 54 1012.3
20260508061537 16 0 0.0 4.8 0.00 0.00 0.00 53 1012.2
20260508060033 16 0 0.0 0.0 0.00 0.00 0.00 52 1012.1
20260508054535 16 0 0.0 0.0 0.00 0.00 0.00 52 1012.1
20260508053034 16 0 0.0 0.0 0.00 0.00 0.00 52 1012.0
20260508051531 17 0 0.0 0.0 0.00 0.00 0.00 49 1012.0
20260508050104 17 0 0.0 0.0 0.00 0.00 0.00 48 1012.0
20260508044532 18 0 0.0 0.0 0.00 0.00 0.00 47 1011.9
20260508043032 18 0 0.0 0.0 0.00 0.00 0.00 46 1011.9
20260508041530 18 0 0.0 0.0 0.00 0.00 0.00 46 1012.0
20260508040045 19 0 0.0 0.0 0.00 0.00 0.00 48 1012.0
20260508034541 20 0 0.0 0.0 0.00 0.00 0.00 46 1011.9
20260508033030 20 0 0.0 1.6 0.00 0.00 0.00 43 1011.8
20260508031535 20 0 0.0 4.8 0.00 0.00 0.00 44 1011.8
20260508030032 21 0 0.0 3.2 0.00 0.00 0.00 48 1011.8
20260508024558 21 0 0.0 0.0 0.00 0.00 0.00 51 1011.7
20260508023033 21 0 0.0 4.8 0.00 0.00 0.00 54 1011.8
20260508021534 22 0 0.0 4.8 0.00 0.00 0.00 51 1011.8
20260508020034 22 138 1.6 8.0 0.00 0.00 0.00 50 1011.8
20260508014536 23 138 3.2 8.0 0.00 0.00 0.00 45 1011.9
20260508013035 24 137 4.8 11.3 0.00 0.00 0.00 36 1011.8
20260508011532 24 137 6.4 14.5 0.00 0.00 0.00 33 1011.9
20260508010042 25 138 6.4 12.9 0.00 0.00 0.00 32 1012.1
20260508004542 25 140 6.4 12.9 0.00 0.00 0.00 32 1012.2
20260508003030 25 140 6.4 14.5 0.00 0.00 0.00 35 1012.2
20260508001541 25 140 4.8 16.1 0.00 0.00 0.00 33 1012.3
20260508000030 25 155 8.0 14.5 0.00 0.00 0.00 34 1012.3
20260507234533 24 161 9.7 19.3 0.00 0.00 0.00 37 1012.4
20260507233029 25 165 9.7 16.1 0.00 0.00 0.00 37 1012.5
20260507231535 25 174 9.7 19.3 0.00 0.00 0.00 37 1012.7
20260507230032 25 147 8.0 17.7 0.00 0.00 0.00 34 1012.8
20260507224530 24 168 8.0 14.5 0.00 0.00 0.00 36 1013.1
20260507223035 24 188 8.0 14.5 0.00 0.00 0.00 43 1013.4
20260507221539 23 203 4.8 16.1 0.00 0.00 0.00 44 1013.6
20260507220037 23 198 3.2 12.9 0.00 0.00 0.00 40 1013.9
20260507214537 23 201 6.4 11.3 0.00 0.00 0.00 47 1014.0
20260507213033 22 221 8.0 17.7 0.00 0.00 0.00 43 1014.1
20260507211534 22 192 8.0 14.5 0.00 0.00 0.00 50 1014.3
20260507210038 22 208 9.7 17.7 0.00 0.00 0.00 49 1014.5
20260507204532 22 158 9.7 17.7 0.00 0.00 0.00 53 1014.7
20260507203051 21 234 8.0 20.9 0.00 0.00 0.00 55 1014.7
20260507201534 21 168 8.0 17.7 0.00 0.00 0.00 58 1014.8
20260507200035 20 200 8.0 17.7 0.00 0.00 0.00 58 1015.0
20260507194535 21 195 9.7 29.0 0.00 0.00 0.00 54 1015.0
20260507193030 20 225 8.0 17.7 0.00 0.00 0.00 50 1015.0
20260507191536 20 225 6.4 20.9 0.00 0.00 0.00 53 1015.1
20260507190032 21 213 8.0 14.5 0.00 0.00 0.00 59 1015.3
20260507184535 20 227 6.4 17.7 0.00 0.00 0.00 51 1015.3
20260507183035 20 188 11.3 20.9 0.00 0.00 0.00 54 1015.4
20260507181535 20 184 8.0 16.1 0.00 0.00 0.00 52 1015.4
20260507180039 19 175 4.8 16.1 0.00 0.00 0.00 53 1015.5
20260507174541 18 173 6.4 19.3 0.00 0.00 0.00 57 1015.4
20260507173053 18 173 9.7 17.7 0.00 0.00 0.00 60 1015.7
20260507171540 18 176 8.0 16.1 0.00 0.00 0.00 61 1015.8
20260507170038 17 204 4.8 11.3 0.00 0.00 0.00 64 1015.9
20260507164534 17 223 4.8 9.7 0.00 0.00 0.00 65 1016.0
20260507163039 16 225 6.4 12.9 0.00 0.00 0.00 66 1016.0
20260507161543 16 230 4.8 12.9 0.00 0.00 0.00 65 1016.0
20260507160038 16 255 1.6 9.7 0.00 0.00 0.00 69 1016.0
20260507154534 15 256 3.2 11.3 0.00 0.00 0.00 72 1015.7
20260507153033 15 280 1.6 6.4 0.00 0.00 0.00 74 1015.7
20260507151531 15 281 1.6 6.4 0.00 0.00 0.00 74 1015.6
20260507150040 14 0 0.0 3.2 0.00 0.00 0.00 76 1015.9
20260507144532 13 281 0.0 6.4 0.00 0.00 0.00 76 1015.6
20260507143043 13 0 0.0 4.8 0.00 0.00 0.00 77 1015.6
20260507141546 13 287 1.6 4.8 0.00 0.00 0.00 79 1015.3
20260507140035 12 0 0.0 4.8 0.00 0.00 0.00 80 1015.2
20260507134535 12 0 0.0 4.8 0.00 0.00 0.00 82 1015.2
20260507133104 11 0 0.0 3.2 0.00 0.00 0.00 83 1015.1
20260507131537 10 286 3.2 9.7 0.00 0.00 0.00 82 1015.0
20260507130036 11 287 1.6 4.8 0.00 0.00 0.00 80 1014.7
20260507124532 11 0 0.0 3.2 0.00 0.00 0.00 80 1014.5
20260507123038 11 0 0.0 3.2 0.00 0.00 0.00 79 1014.5
20260507121530 11 0 0.0 3.2 0.00 0.00 0.00 80 1014.6
20260507120037 11 286 1.6 3.2 0.00 0.00 0.00 80 1014.6
20260507114542 11 286 1.6 4.8 0.00 0.00 0.00 78 1014.6
20260507113036 10 0 0.0 11.3 0.00 0.00 0.00 76 1014.5
20260507111532 11 286 6.4 9.7 0.00 0.00 0.00 74 1014.4
20260507110042 12 288 6.4 12.9 0.00 0.00 0.00 67 1014.3
20260507104536 13 302 8.0 12.9 0.00 0.00 0.00 63 1014.3
20260507103043 13 309 6.4 14.5 0.00 0.00 0.00 63 1014.3
20260507101538 14 303 8.0 19.3 0.00 0.00 0.00 62 1014.3
20260507100037 14 298 6.4 16.1 0.00 0.00 0.00 61 1014.1
20260507094536 13 284 8.0 14.5 0.00 0.00 0.00 64 1014.2
20260507093032 13 257 0.0 6.4 0.00 0.00 0.00 64 1014.5